Year,Month,Day,Hour,Minute,Value (Times are PST for temperature in C)
2008,04,02,00,00,1.80
2008,04,02,00,01,1.80
2008,04,02,00,02,1.80
2008,04,02,00,03,1.80
2008,04,02,00,04,1.70
2008,04,02,00,05,1.70
2008,04,02,00,06,1.70
2008,04,02,00,07,1.70
2008,04,02,00,08,1.70
2008,04,02,00,09,1.70
2008,04,02,00,10,1.70
2008,04,02,00,11,1.70
2008,04,02,00,12,1.70
2008,04,02,00,13,1.60
2008,04,02,00,14,1.60
2008,04,02,00,15,1.50
2008,04,02,00,16,1.50
2008,04,02,00,17,1.40
2008,04,02,00,18,1.30
2008,04,02,00,19,1.30
2008,04,02,00,20,1.30
2008,04,02,00,21,1.30
2008,04,02,00,22,1.30
2008,04,02,00,23,1.30
2008,04,02,00,24,1.30
2008,04,02,00,25,1.30
2008,04,02,00,26,1.20
2008,04,02,00,27,1.20
2008,04,02,00,28,1.20
2008,04,02,00,29,1.20
2008,04,02,00,30,1.20
2008,04,02,00,31,1.20
2008,04,02,00,32,1.20
2008,04,02,00,33,1.20
2008,04,02,00,34,1.20
2008,04,02,00,35,1.10
2008,04,02,00,36,1.10
2008,04,02,00,37,1.10
2008,04,02,00,38,1.10
2008,04,02,00,39,1.10
2008,04,02,00,40,1.20
2008,04,02,00,41,1.20
2008,04,02,00,42,1.30
2008,04,02,00,43,1.30
2008,04,02,00,44,1.40
2008,04,02,00,45,1.50
2008,04,02,00,46,1.50
2008,04,02,00,47,1.50
2008,04,02,00,48,1.50
2008,04,02,00,49,1.50
2008,04,02,00,50,1.50
2008,04,02,00,51,1.50
2008,04,02,00,52,1.50
2008,04,02,00,53,1.50
2008,04,02,00,54,1.50
2008,04,02,00,55,1.60
2008,04,02,00,56,1.60
2008,04,02,00,57,1.50
2008,04,02,00,58,1.50
2008,04,02,00,59,1.50
2008,04,02,01,00,1.50
2008,04,02,01,01,1.50
2008,04,02,01,02,1.50
2008,04,02,01,03,1.50
2008,04,02,01,04,1.60
2008,04,02,01,05,1.70
2008,04,02,01,06,1.70
2008,04,02,01,07,1.80
2008,04,02,01,08,1.80
2008,04,02,01,09,1.80
2008,04,02,01,10,1.80
2008,04,02,01,11,1.80
2008,04,02,01,12,1.90
2008,04,02,01,13,1.90
2008,04,02,01,14,1.90
2008,04,02,01,15,1.90
2008,04,02,01,16,1.90
2008,04,02,01,17,1.90
2008,04,02,01,18,1.80
2008,04,02,01,19,1.80
2008,04,02,01,20,1.80
2008,04,02,01,21,1.70
2008,04,02,01,22,1.70
2008,04,02,01,23,1.60
2008,04,02,01,24,1.50
2008,04,02,01,25,1.50
2008,04,02,01,26,1.40
2008,04,02,01,27,1.30
2008,04,02,01,28,1.30
2008,04,02,01,29,1.30
2008,04,02,01,30,1.40
2008,04,02,01,31,1.50
2008,04,02,01,32,1.50
2008,04,02,01,33,1.60
2008,04,02,01,34,1.60
2008,04,02,01,35,1.70
2008,04,02,01,36,1.70
2008,04,02,01,37,1.70
2008,04,02,01,38,1.70
2008,04,02,01,39,1.80
2008,04,02,01,40,1.80
2008,04,02,01,41,1.80
2008,04,02,01,42,1.80
2008,04,02,01,43,1.80
2008,04,02,01,44,1.80
2008,04,02,01,45,1.90
2008,04,02,01,46,1.90
2008,04,02,01,47,1.90
2008,04,02,01,48,1.90
2008,04,02,01,49,1.80
2008,04,02,01,50,1.90
2008,04,02,01,51,1.90
2008,04,02,01,52,1.80
2008,04,02,01,53,1.80
2008,04,02,01,54,1.80
2008,04,02,01,55,1.80
2008,04,02,01,56,1.70
2008,04,02,01,57,1.70
2008,04,02,01,58,1.60
2008,04,02,01,59,1.60
2008,04,02,02,00,1.60
2008,04,02,02,01,1.60
2008,04,02,02,02,1.60
2008,04,02,02,03,1.60
2008,04,02,02,04,1.50
2008,04,02,02,05,1.50
2008,04,02,02,06,1.50
2008,04,02,02,07,1.60
2008,04,02,02,08,1.60
2008,04,02,02,09,1.60
2008,04,02,02,10,1.50
2008,04,02,02,11,1.50
2008,04,02,02,12,1.60
2008,04,02,02,13,1.60
2008,04,02,02,14,1.60
2008,04,02,02,15,1.60
2008,04,02,02,16,1.50
2008,04,02,02,17,1.50
2008,04,02,02,18,1.40
2008,04,02,02,19,1.50
2008,04,02,02,20,1.60
2008,04,02,02,21,1.60
2008,04,02,02,22,1.70
2008,04,02,02,23,1.70
2008,04,02,02,24,1.70
2008,04,02,02,25,1.70
2008,04,02,02,26,1.80
2008,04,02,02,27,1.80
2008,04,02,02,28,1.80
2008,04,02,02,29,1.80
2008,04,02,02,30,1.80
2008,04,02,02,31,1.80
2008,04,02,02,32,1.80
2008,04,02,02,33,1.80
2008,04,02,02,34,1.80
2008,04,02,02,35,1.80
2008,04,02,02,36,1.80
2008,04,02,02,37,1.80
2008,04,02,02,38,1.80
2008,04,02,02,39,1.80
2008,04,02,02,40,1.80
2008,04,02,02,41,1.80
2008,04,02,02,42,1.90
2008,04,02,02,43,1.90
2008,04,02,02,44,2.00
2008,04,02,02,45,2.00
2008,04,02,02,46,2.00
2008,04,02,02,47,2.00
2008,04,02,02,48,2.00
2008,04,02,02,49,2.00
2008,04,02,02,50,2.00
2008,04,02,02,51,1.90
2008,04,02,02,52,1.90
2008,04,02,02,53,1.90
2008,04,02,02,54,1.90
2008,04,02,02,55,1.90
2008,04,02,02,56,1.90
2008,04,02,02,57,1.90
2008,04,02,02,58,1.90
2008,04,02,02,59,1.90
2008,04,02,03,00,1.90
2008,04,02,03,01,1.90
2008,04,02,03,02,1.90
2008,04,02,03,03,1.80
2008,04,02,03,04,1.80
2008,04,02,03,05,1.80
2008,04,02,03,06,1.80
2008,04,02,03,07,1.80
2008,04,02,03,08,1.80
2008,04,02,03,09,1.80
2008,04,02,03,10,1.80
2008,04,02,03,11,1.80
2008,04,02,03,12,1.80
2008,04,02,03,13,1.80
2008,04,02,03,14,1.70
2008,04,02,03,15,1.70
2008,04,02,03,16,1.60
2008,04,02,03,17,1.60
2008,04,02,03,18,1.50
2008,04,02,03,19,1.50
2008,04,02,03,20,1.50
2008,04,02,03,21,1.50
2008,04,02,03,22,1.40
2008,04,02,03,23,1.40
2008,04,02,03,24,1.30
2008,04,02,03,25,1.30
2008,04,02,03,26,1.30
2008,04,02,03,27,1.30
2008,04,02,03,28,1.30
2008,04,02,03,29,1.30
2008,04,02,03,30,1.30
2008,04,02,03,31,1.30
2008,04,02,03,32,1.30
2008,04,02,03,33,1.30
2008,04,02,03,34,1.30
2008,04,02,03,35,1.30
2008,04,02,03,36,1.30
2008,04,02,03,37,1.30
2008,04,02,03,38,1.30
2008,04,02,03,39,1.30
2008,04,02,03,40,1.20
2008,04,02,03,41,1.20
2008,04,02,03,42,1.20
2008,04,02,03,43,1.20
2008,04,02,03,44,1.20
2008,04,02,03,45,1.30
2008,04,02,03,46,1.30
2008,04,02,03,47,1.30
2008,04,02,03,48,1.30
2008,04,02,03,49,1.30
2008,04,02,03,50,1.30
2008,04,02,03,51,1.30
2008,04,02,03,52,1.20
2008,04,02,03,53,1.10
2008,04,02,03,54,1.10
2008,04,02,03,55,1.00
2008,04,02,03,56,1.10
2008,04,02,03,57,1.00
2008,04,02,03,58,1.10
2008,04,02,03,59,1.20
2008,04,02,04,00,1.30
2008,04,02,04,01,1.30
2008,04,02,04,02,1.30
2008,04,02,04,03,1.30
2008,04,02,04,04,1.30
2008,04,02,04,05,1.40
2008,04,02,04,06,1.40
2008,04,02,04,07,1.40
2008,04,02,04,08,1.40
2008,04,02,04,09,1.40
2008,04,02,04,10,1.30
2008,04,02,04,11,1.40
2008,04,02,04,12,1.40
2008,04,02,04,13,1.50
2008,04,02,04,14,1.50
2008,04,02,04,15,1.50
2008,04,02,04,16,1.60
2008,04,02,04,17,1.60
2008,04,02,04,18,1.60
2008,04,02,04,19,1.70
2008,04,02,04,20,1.70
2008,04,02,04,21,1.70
2008,04,02,04,22,1.70
2008,04,02,04,23,1.80
2008,04,02,04,24,1.80
2008,04,02,04,25,1.80
2008,04,02,04,26,1.80
2008,04,02,04,27,1.90
2008,04,02,04,28,1.90
2008,04,02,04,29,1.90
2008,04,02,04,30,1.90
2008,04,02,04,31,1.90
2008,04,02,04,32,1.90
2008,04,02,04,33,2.00
2008,04,02,04,34,2.00
2008,04,02,04,35,2.00
2008,04,02,04,36,2.00
2008,04,02,04,37,2.00
2008,04,02,04,38,1.90
2008,04,02,04,39,1.90
2008,04,02,04,40,1.80
2008,04,02,04,41,1.80
2008,04,02,04,42,1.90
2008,04,02,04,43,1.90
2008,04,02,04,44,1.80
2008,04,02,04,45,1.80
2008,04,02,04,46,1.80
2008,04,02,04,47,1.80
2008,04,02,04,48,1.80
2008,04,02,04,49,1.90
2008,04,02,04,50,1.80
2008,04,02,04,51,1.80
2008,04,02,04,52,1.80
2008,04,02,04,53,1.80
2008,04,02,04,54,1.80
2008,04,02,04,55,1.80
2008,04,02,04,56,1.80
2008,04,02,04,57,1.80
2008,04,02,04,58,1.80
2008,04,02,04,59,1.90
2008,04,02,05,00,1.90
2008,04,02,05,01,2.00
2008,04,02,05,02,2.00
2008,04,02,05,03,2.10
2008,04,02,05,04,2.10
2008,04,02,05,05,2.20
2008,04,02,05,06,2.20
2008,04,02,05,07,2.20
2008,04,02,05,08,2.20
2008,04,02,05,09,2.20
2008,04,02,05,10,2.20
2008,04,02,05,11,2.20
2008,04,02,05,12,2.20
2008,04,02,05,13,2.20
2008,04,02,05,14,2.20
2008,04,02,05,15,2.20
2008,04,02,05,16,2.20
2008,04,02,05,17,2.20
2008,04,02,05,18,2.30
2008,04,02,05,19,2.30
2008,04,02,05,20,2.30
2008,04,02,05,21,2.40
2008,04,02,05,22,2.40
2008,04,02,05,23,2.40
2008,04,02,05,24,2.50
2008,04,02,05,25,2.50
2008,04,02,05,26,2.50
2008,04,02,05,27,2.50
2008,04,02,05,28,2.50
2008,04,02,05,29,2.50
2008,04,02,05,30,2.50
2008,04,02,05,31,2.60
2008,04,02,05,32,2.60
2008,04,02,05,33,2.60
2008,04,02,05,34,2.60
2008,04,02,05,35,2.70
2008,04,02,05,36,2.70
2008,04,02,05,37,2.70
2008,04,02,05,38,2.70
2008,04,02,05,39,2.70
2008,04,02,05,40,2.80
2008,04,02,05,41,2.80
2008,04,02,05,42,2.80
2008,04,02,05,43,2.80
2008,04,02,05,44,2.90
2008,04,02,05,45,2.90
2008,04,02,05,46,2.90
2008,04,02,05,47,2.90
2008,04,02,05,48,2.90
2008,04,02,05,49,2.90
2008,04,02,05,50,3.00
2008,04,02,05,51,3.10
2008,04,02,05,52,3.10
2008,04,02,05,53,3.10
2008,04,02,05,54,3.10
2008,04,02,05,55,3.10
2008,04,02,05,56,3.10
2008,04,02,05,57,3.10
2008,04,02,05,58,3.10
2008,04,02,05,59,3.10
2008,04,02,06,00,3.10
2008,04,02,06,01,3.10
2008,04,02,06,02,3.10
2008,04,02,06,03,3.10
2008,04,02,06,04,3.10
2008,04,02,06,05,3.10
2008,04,02,06,06,3.10
2008,04,02,06,07,3.10
2008,04,02,06,08,3.20
2008,04,02,06,09,3.20
2008,04,02,06,10,3.20
2008,04,02,06,11,3.20
2008,04,02,06,12,3.20
2008,04,02,06,13,3.20
2008,04,02,06,14,3.30
2008,04,02,06,15,3.30
2008,04,02,06,16,3.30
2008,04,02,06,17,3.30
2008,04,02,06,18,3.30
2008,04,02,06,19,3.30
2008,04,02,06,20,3.30
2008,04,02,06,21,3.30
2008,04,02,06,22,3.30
2008,04,02,06,23,3.30
2008,04,02,06,24,3.30
2008,04,02,06,25,3.20
2008,04,02,06,26,3.20
2008,04,02,06,27,3.20
2008,04,02,06,28,3.20
2008,04,02,06,29,3.10
2008,04,02,06,30,3.10
2008,04,02,06,31,3.10
2008,04,02,06,32,3.10
2008,04,02,06,33,3.10
2008,04,02,06,34,2.90
2008,04,02,06,35,2.90
2008,04,02,06,36,2.80
2008,04,02,06,37,2.70
2008,04,02,06,38,2.70
2008,04,02,06,39,2.60
2008,04,02,06,40,2.50
2008,04,02,06,41,2.40
2008,04,02,06,42,2.40
2008,04,02,06,43,2.30
2008,04,02,06,44,2.20
2008,04,02,06,45,2.20
2008,04,02,06,46,2.10
2008,04,02,06,47,2.10
2008,04,02,06,48,2.20
2008,04,02,06,49,2.20
2008,04,02,06,50,2.10
2008,04,02,06,51,2.10
2008,04,02,06,52,2.00
2008,04,02,06,53,2.10
2008,04,02,06,54,2.10
2008,04,02,06,55,2.10
2008,04,02,06,56,2.10
2008,04,02,06,57,2.10
2008,04,02,06,58,2.10
2008,04,02,06,59,2.10
2008,04,02,07,00,2.10
2008,04,02,07,01,2.10
2008,04,02,07,02,2.10
2008,04,02,07,03,2.00
2008,04,02,07,04,2.00
2008,04,02,07,05,2.00
2008,04,02,07,06,2.00
2008,04,02,07,07,2.00
2008,04,02,07,08,2.00
2008,04,02,07,09,2.10
2008,04,02,07,10,2.10
2008,04,02,07,11,2.20
2008,04,02,07,12,2.20
2008,04,02,07,13,2.20
2008,04,02,07,14,2.20
2008,04,02,07,15,2.20
2008,04,02,07,16,2.20
2008,04,02,07,17,2.20
2008,04,02,07,18,2.20
2008,04,02,07,19,2.30
2008,04,02,07,20,2.30
2008,04,02,07,21,2.30
2008,04,02,07,22,2.30
2008,04,02,07,23,2.30
2008,04,02,07,24,2.40
2008,04,02,07,25,2.40
2008,04,02,07,26,2.40
2008,04,02,07,27,2.40
2008,04,02,07,28,2.40
2008,04,02,07,29,2.50
2008,04,02,07,30,2.50
2008,04,02,07,31,2.50
2008,04,02,07,32,2.50
2008,04,02,07,33,2.50
2008,04,02,07,34,2.60
2008,04,02,07,35,2.60
2008,04,02,07,36,2.60
2008,04,02,07,37,2.60
2008,04,02,07,38,2.60
2008,04,02,07,39,2.60
2008,04,02,07,40,2.60
2008,04,02,07,41,2.60
2008,04,02,07,42,2.60
2008,04,02,07,43,2.60
2008,04,02,07,44,2.70
2008,04,02,07,45,2.70
2008,04,02,07,46,2.70
2008,04,02,07,47,2.70
2008,04,02,07,48,2.70
2008,04,02,07,49,2.70
2008,04,02,07,50,2.70
2008,04,02,07,51,2.70
2008,04,02,07,52,2.70
2008,04,02,07,53,2.70
2008,04,02,07,54,2.80
2008,04,02,07,55,2.80
2008,04,02,07,56,2.90
2008,04,02,07,57,2.90
2008,04,02,07,58,2.90
2008,04,02,07,59,2.90
2008,04,02,08,00,2.90
2008,04,02,08,01,3.00
2008,04,02,08,02,3.10
2008,04,02,08,03,3.10
2008,04,02,08,04,3.10
2008,04,02,08,05,3.10
2008,04,02,08,06,3.20
2008,04,02,08,07,3.20
2008,04,02,08,08,3.30
2008,04,02,08,09,3.30
2008,04,02,08,10,3.30
2008,04,02,08,11,3.40
2008,04,02,08,12,3.40
2008,04,02,08,13,3.50
2008,04,02,08,14,3.50
2008,04,02,08,15,3.60
2008,04,02,08,16,3.70
2008,04,02,08,17,3.80
2008,04,02,08,18,3.90
2008,04,02,08,19,4.00
2008,04,02,08,20,4.10
2008,04,02,08,21,4.20
2008,04,02,08,22,4.30
2008,04,02,08,23,4.40
2008,04,02,08,24,4.50
2008,04,02,08,25,4.60
2008,04,02,08,26,4.70
2008,04,02,08,27,4.80
2008,04,02,08,28,4.90
2008,04,02,08,29,5.00
2008,04,02,08,30,5.10
2008,04,02,08,31,5.10
2008,04,02,08,32,5.20
2008,04,02,08,33,5.30
2008,04,02,08,34,5.30
2008,04,02,08,35,5.30
2008,04,02,08,36,5.30
2008,04,02,08,37,5.30
2008,04,02,08,38,5.30
2008,04,02,08,39,5.30
2008,04,02,08,40,5.30
2008,04,02,08,41,5.30
2008,04,02,08,42,5.40
2008,04,02,08,43,5.40
2008,04,02,08,44,5.40
2008,04,02,08,45,5.40
2008,04,02,08,46,5.40
2008,04,02,08,47,5.30
2008,04,02,08,48,5.30
2008,04,02,08,49,5.30
2008,04,02,08,50,5.30
2008,04,02,08,51,5.30
2008,04,02,08,52,5.30
2008,04,02,08,53,5.30
2008,04,02,08,54,5.30
2008,04,02,08,55,5.30
2008,04,02,08,56,5.30
2008,04,02,08,57,5.30
2008,04,02,08,58,5.30
2008,04,02,08,59,5.30
2008,04,02,09,00,5.30
2008,04,02,09,01,5.30
2008,04,02,09,02,5.30
2008,04,02,09,03,5.30
2008,04,02,09,04,5.30
2008,04,02,09,05,5.30
2008,04,02,09,06,5.30
2008,04,02,09,07,5.30
2008,04,02,09,08,5.30
2008,04,02,09,09,5.30
2008,04,02,09,10,5.30
2008,04,02,09,11,5.30
2008,04,02,09,12,5.30
2008,04,02,09,13,5.30
2008,04,02,09,14,5.30
2008,04,02,09,15,5.30
2008,04,02,09,16,5.40
2008,04,02,09,17,5.40
2008,04,02,09,18,5.40
2008,04,02,09,19,5.40
2008,04,02,09,20,5.50
2008,04,02,09,21,5.50
2008,04,02,09,22,5.60
2008,04,02,09,23,5.70
2008,04,02,09,24,5.70
2008,04,02,09,25,5.70
2008,04,02,09,26,5.70
2008,04,02,09,27,5.70
2008,04,02,09,28,5.70
2008,04,02,09,29,5.70
2008,04,02,09,30,5.70
2008,04,02,09,31,5.70
2008,04,02,09,32,5.70
2008,04,02,09,33,5.70
2008,04,02,09,34,5.80
2008,04,02,09,35,5.80
2008,04,02,09,36,5.90
2008,04,02,09,37,5.90
2008,04,02,09,38,5.90
2008,04,02,09,39,5.90
2008,04,02,09,40,5.90
2008,04,02,09,41,5.90
2008,04,02,09,42,5.90
2008,04,02,09,43,5.90
2008,04,02,09,44,5.80
2008,04,02,09,45,5.80
2008,04,02,09,46,5.70
2008,04,02,09,47,5.70
2008,04,02,09,48,5.70
2008,04,02,09,49,5.70
2008,04,02,09,50,5.80
2008,04,02,09,51,5.80
2008,04,02,09,52,5.80
2008,04,02,09,53,5.80
2008,04,02,09,54,5.80
2008,04,02,09,55,5.80
2008,04,02,09,56,5.80
2008,04,02,09,57,5.80
2008,04,02,09,58,5.70
2008,04,02,09,59,5.70
2008,04,02,10,00,5.70
2008,04,02,10,01,5.70
2008,04,02,10,02,5.70
2008,04,02,10,03,5.80
2008,04,02,10,04,5.80
2008,04,02,10,05,5.80
2008,04,02,10,06,5.90
2008,04,02,10,07,5.90
2008,04,02,10,08,5.90
2008,04,02,10,09,5.90
2008,04,02,10,10,5.90
2008,04,02,10,11,5.90
2008,04,02,10,12,5.90
2008,04,02,10,13,6.00
2008,04,02,10,14,6.00
2008,04,02,10,15,6.10
2008,04,02,10,16,6.20
2008,04,02,10,17,6.20
2008,04,02,10,18,6.20
2008,04,02,10,19,6.20
2008,04,02,10,20,6.20
2008,04,02,10,21,6.10
2008,04,02,10,22,6.10
2008,04,02,10,23,6.00
2008,04,02,10,24,6.00
2008,04,02,10,25,5.90
2008,04,02,10,26,5.90
2008,04,02,10,27,5.90
2008,04,02,10,28,5.80
2008,04,02,10,29,5.90
2008,04,02,10,30,5.90
2008,04,02,10,31,5.90
2008,04,02,10,32,6.00
2008,04,02,10,33,6.10
2008,04,02,10,34,6.20
2008,04,02,10,35,6.30
2008,04,02,10,36,6.30
2008,04,02,10,37,6.40
2008,04,02,10,38,6.40
2008,04,02,10,39,6.40
2008,04,02,10,40,6.40
2008,04,02,10,41,6.40
2008,04,02,10,42,6.30
2008,04,02,10,43,6.30
2008,04,02,10,44,6.30
2008,04,02,10,45,6.40
2008,04,02,10,46,6.50
2008,04,02,10,47,6.60
2008,04,02,10,48,6.60
2008,04,02,10,49,6.60
2008,04,02,10,50,6.70
2008,04,02,10,51,6.70
2008,04,02,10,52,6.60
2008,04,02,10,53,6.60
2008,04,02,10,54,6.60
2008,04,02,10,55,6.60
2008,04,02,10,56,6.60
2008,04,02,10,57,6.60
2008,04,02,10,58,6.60
2008,04,02,10,59,6.60
2008,04,02,11,00,6.50
2008,04,02,11,01,6.40
2008,04,02,11,02,6.50
2008,04,02,11,03,6.60
2008,04,02,11,04,6.60
2008,04,02,11,05,6.60
2008,04,02,11,06,6.60
2008,04,02,11,07,6.70
2008,04,02,11,08,6.70
2008,04,02,11,09,6.70
2008,04,02,11,10,6.60
2008,04,02,11,11,6.60
2008,04,02,11,12,6.60
2008,04,02,11,13,6.60
2008,04,02,11,14,6.60
2008,04,02,11,15,6.60
2008,04,02,11,16,6.60
2008,04,02,11,17,6.60
2008,04,02,11,18,6.60
2008,04,02,11,19,6.60
2008,04,02,11,20,6.70
2008,04,02,11,21,6.90
2008,04,02,11,22,7.10
2008,04,02,11,23,7.20
2008,04,02,11,24,7.40
2008,04,02,11,25,7.50
2008,04,02,11,26,7.60
2008,04,02,11,27,7.80
2008,04,02,11,28,7.80
2008,04,02,11,29,7.80
2008,04,02,11,30,7.70
2008,04,02,11,31,7.50
2008,04,02,11,32,7.50
2008,04,02,11,33,7.50
2008,04,02,11,34,7.50
2008,04,02,11,35,7.40
2008,04,02,11,36,7.30
2008,04,02,11,37,7.40
2008,04,02,11,38,7.40
2008,04,02,11,39,7.40
2008,04,02,11,40,7.40
2008,04,02,11,41,7.50
2008,04,02,11,42,7.50
2008,04,02,11,43,7.60
2008,04,02,11,44,7.70
2008,04,02,11,45,7.70
2008,04,02,11,46,7.60
2008,04,02,11,47,7.60
2008,04,02,11,48,7.60
2008,04,02,11,49,7.70
2008,04,02,11,50,7.80
2008,04,02,11,51,7.80
2008,04,02,11,52,7.80
2008,04,02,11,53,7.70
2008,04,02,11,54,7.60
2008,04,02,11,55,7.60
2008,04,02,11,56,7.70
2008,04,02,11,57,7.80
2008,04,02,11,58,7.80
2008,04,02,11,59,7.90
2008,04,02,12,00,8.00
2008,04,02,12,01,8.00
2008,04,02,12,02,8.10
2008,04,02,12,03,8.20
2008,04,02,12,04,8.20
2008,04,02,12,05,8.20
2008,04,02,12,06,8.20
2008,04,02,12,07,8.20
2008,04,02,12,08,8.20
2008,04,02,12,09,8.40
2008,04,02,12,10,8.50
2008,04,02,12,11,8.50
2008,04,02,12,12,8.50
2008,04,02,12,13,8.30
2008,04,02,12,14,8.30
2008,04,02,12,15,8.20
2008,04,02,12,16,8.20
2008,04,02,12,17,8.20
2008,04,02,12,18,8.30
2008,04,02,12,19,8.30
2008,04,02,12,20,8.30
2008,04,02,12,21,8.30
2008,04,02,12,22,8.20
2008,04,02,12,23,8.20
2008,04,02,12,24,8.20
2008,04,02,12,25,8.20
2008,04,02,12,26,8.10
2008,04,02,12,27,8.00
2008,04,02,12,28,8.00
2008,04,02,12,29,8.10
2008,04,02,12,30,8.10
2008,04,02,12,31,8.10
2008,04,02,12,32,8.20
2008,04,02,12,33,8.00
2008,04,02,12,34,8.00
2008,04,02,12,35,7.90
2008,04,02,12,36,7.90
2008,04,02,12,37,7.80
2008,04,02,12,38,7.80
2008,04,02,12,39,7.80
2008,04,02,12,40,7.80
2008,04,02,12,41,7.80
2008,04,02,12,42,7.80
2008,04,02,12,43,7.80
2008,04,02,12,44,7.80
2008,04,02,12,45,7.80
2008,04,02,12,46,7.80
2008,04,02,12,47,7.80
2008,04,02,12,48,7.80
2008,04,02,12,49,7.80
2008,04,02,12,50,7.80
2008,04,02,12,51,7.80
2008,04,02,12,52,7.70
2008,04,02,12,53,7.60
2008,04,02,12,54,7.60
2008,04,02,12,55,7.60
2008,04,02,12,56,7.60
2008,04,02,12,57,7.60
2008,04,02,12,58,7.60
2008,04,02,12,59,7.60
2008,04,02,13,00,7.60
2008,04,02,13,01,7.60
2008,04,02,13,02,7.60
2008,04,02,13,03,7.70
2008,04,02,13,04,7.70
2008,04,02,13,05,7.70
2008,04,02,13,06,7.70
2008,04,02,13,07,7.80
2008,04,02,13,08,7.70
2008,04,02,13,09,7.60
2008,04,02,13,10,7.60
2008,04,02,13,11,7.50
2008,04,02,13,12,7.60
2008,04,02,13,13,7.60
2008,04,02,13,14,7.60
2008,04,02,13,15,7.60
2008,04,02,13,16,7.70
2008,04,02,13,17,7.70
2008,04,02,13,18,7.80
2008,04,02,13,19,7.80
2008,04,02,13,20,7.80
2008,04,02,13,21,7.90
2008,04,02,13,22,7.90
2008,04,02,13,23,8.00
2008,04,02,13,24,8.10
2008,04,02,13,25,8.00
2008,04,02,13,26,8.00
2008,04,02,13,27,7.90
2008,04,02,13,28,7.90
2008,04,02,13,29,7.80
2008,04,02,13,30,7.80
2008,04,02,13,31,7.90
2008,04,02,13,32,7.90
2008,04,02,13,33,7.90
2008,04,02,13,34,8.00
2008,04,02,13,35,8.00
2008,04,02,13,36,8.00
2008,04,02,13,37,7.90
2008,04,02,13,38,7.90
2008,04,02,13,39,7.80
2008,04,02,13,40,7.90
2008,04,02,13,41,8.00
2008,04,02,13,42,8.00
2008,04,02,13,43,8.20
2008,04,02,13,44,8.20
2008,04,02,13,45,8.30
2008,04,02,13,46,8.30
2008,04,02,13,47,8.40
2008,04,02,13,48,8.40
2008,04,02,13,49,8.50
2008,04,02,13,50,8.50
2008,04,02,13,51,8.60
2008,04,02,13,52,8.50
2008,04,02,13,53,8.50
2008,04,02,13,54,8.40
2008,04,02,13,55,8.30
2008,04,02,13,56,8.30
2008,04,02,13,57,8.30
2008,04,02,13,58,8.30
2008,04,02,13,59,8.20
2008,04,02,14,00,8.30
2008,04,02,14,01,8.40
2008,04,02,14,02,8.40
2008,04,02,14,03,8.50
2008,04,02,14,04,8.70
2008,04,02,14,05,8.80
2008,04,02,14,06,9.00
2008,04,02,14,07,9.10
2008,04,02,14,08,9.30
2008,04,02,14,09,9.40
2008,04,02,14,10,9.40
2008,04,02,14,11,9.40
2008,04,02,14,12,9.40
2008,04,02,14,13,9.40
2008,04,02,14,14,9.30
2008,04,02,14,15,9.30
2008,04,02,14,16,9.20
2008,04,02,14,17,9.20
2008,04,02,14,18,9.30
2008,04,02,14,19,9.40
2008,04,02,14,20,9.50
2008,04,02,14,21,9.50
2008,04,02,14,22,9.60
2008,04,02,14,23,9.60
2008,04,02,14,24,9.60
2008,04,02,14,25,9.50
2008,04,02,14,26,9.50
2008,04,02,14,27,9.40
2008,04,02,14,28,9.40
2008,04,02,14,29,9.40
2008,04,02,14,30,9.50
2008,04,02,14,31,9.60
2008,04,02,14,32,9.60
2008,04,02,14,33,9.60
2008,04,02,14,34,9.60
2008,04,02,14,35,9.60
2008,04,02,14,36,9.50
2008,04,02,14,37,9.50
2008,04,02,14,38,9.60
2008,04,02,14,39,9.60
2008,04,02,14,40,9.60
2008,04,02,14,41,9.70
2008,04,02,14,42,9.60
2008,04,02,14,43,9.50
2008,04,02,14,44,9.50
2008,04,02,14,45,9.50
2008,04,02,14,46,9.60
2008,04,02,14,47,9.50
2008,04,02,14,48,9.50
2008,04,02,14,49,9.50
2008,04,02,14,50,9.50
2008,04,02,14,51,9.60
2008,04,02,14,52,9.60
2008,04,02,14,53,9.60
2008,04,02,14,54,9.50
2008,04,02,14,55,9.40
2008,04,02,14,56,9.40
2008,04,02,14,57,9.40
2008,04,02,14,58,9.50
2008,04,02,14,59,9.50
2008,04,02,15,00,9.50
2008,04,02,15,01,9.50
2008,04,02,15,02,9.50
2008,04,02,15,03,9.50
2008,04,02,15,04,9.50
2008,04,02,15,05,9.50
2008,04,02,15,06,9.60
2008,04,02,15,07,9.70
2008,04,02,15,08,9.70
2008,04,02,15,09,9.60
2008,04,02,15,10,9.50
2008,04,02,15,11,9.40
2008,04,02,15,12,9.40
2008,04,02,15,13,9.40
2008,04,02,15,14,9.40
2008,04,02,15,15,9.30
2008,04,02,15,16,9.20
2008,04,02,15,17,9.20
2008,04,02,15,18,9.10
2008,04,02,15,19,9.10
2008,04,02,15,20,9.20
2008,04,02,15,21,9.20
2008,04,02,15,22,9.20
2008,04,02,15,23,9.20
2008,04,02,15,24,9.20
2008,04,02,15,25,9.10
2008,04,02,15,26,9.10
2008,04,02,15,27,9.10
2008,04,02,15,28,9.20
2008,04,02,15,29,9.40
2008,04,02,15,30,9.50
2008,04,02,15,31,9.70
2008,04,02,15,32,9.70
2008,04,02,15,33,9.70
2008,04,02,15,34,9.70
2008,04,02,15,35,9.70
2008,04,02,15,36,9.70
2008,04,02,15,37,9.60
2008,04,02,15,38,9.60
2008,04,02,15,39,9.50
2008,04,02,15,40,9.50
2008,04,02,15,41,9.50
2008,04,02,15,42,9.60
2008,04,02,15,43,9.60
2008,04,02,15,44,9.60
2008,04,02,15,45,9.60
2008,04,02,15,46,9.60
2008,04,02,15,47,9.70
2008,04,02,15,48,9.70
2008,04,02,15,49,9.80
2008,04,02,15,50,9.90
2008,04,02,15,51,10.00
2008,04,02,15,52,10.10
2008,04,02,15,53,10.20
2008,04,02,15,54,10.20
2008,04,02,15,55,10.20
2008,04,02,15,56,10.20
2008,04,02,15,57,10.10
2008,04,02,15,58,10.00
2008,04,02,15,59,9.90
2008,04,02,16,00,9.90
2008,04,02,16,01,9.90
2008,04,02,16,02,9.90
2008,04,02,16,03,9.90
2008,04,02,16,04,9.90
2008,04,02,16,05,9.90
2008,04,02,16,06,9.90
2008,04,02,16,07,9.90
2008,04,02,16,08,9.90
2008,04,02,16,09,9.90
2008,04,02,16,10,10.10
2008,04,02,16,11,10.10
2008,04,02,16,12,10.10
2008,04,02,16,13,10.00
2008,04,02,16,14,9.90
2008,04,02,16,15,9.90
2008,04,02,16,16,10.00
2008,04,02,16,17,10.10
2008,04,02,16,18,10.20
2008,04,02,16,19,10.20
2008,04,02,16,20,10.10
2008,04,02,16,21,10.00
2008,04,02,16,22,9.90
2008,04,02,16,23,9.90
2008,04,02,16,24,9.90
2008,04,02,16,25,9.90
2008,04,02,16,26,9.90
2008,04,02,16,27,9.90
2008,04,02,16,28,9.90
2008,04,02,16,29,9.90
2008,04,02,16,30,10.00
2008,04,02,16,31,9.90
2008,04,02,16,32,10.00
2008,04,02,16,33,10.10
2008,04,02,16,34,10.10
2008,04,02,16,35,10.10
2008,04,02,16,36,10.10
2008,04,02,16,37,10.00
2008,04,02,16,38,9.90
2008,04,02,16,39,9.90
2008,04,02,16,40,9.90
2008,04,02,16,41,9.90
2008,04,02,16,42,9.90
2008,04,02,16,43,9.90
2008,04,02,16,44,9.90
2008,04,02,16,45,9.90
2008,04,02,16,46,9.90
2008,04,02,16,47,9.90
2008,04,02,16,48,9.90
2008,04,02,16,49,9.90
2008,04,02,16,50,9.90
2008,04,02,16,51,9.90
2008,04,02,16,52,9.90
2008,04,02,16,53,9.90
2008,04,02,16,54,9.90
2008,04,02,16,55,9.90
2008,04,02,16,56,9.80
2008,04,02,16,57,9.80
2008,04,02,16,58,9.80
2008,04,02,16,59,9.70
2008,04,02,17,00,9.70
2008,04,02,17,01,9.70
2008,04,02,17,02,9.80
2008,04,02,17,03,9.90
2008,04,02,17,04,9.90
2008,04,02,17,05,9.90
2008,04,02,17,06,9.90
2008,04,02,17,07,10.00
2008,04,02,17,08,10.10
2008,04,02,17,09,10.10
2008,04,02,17,10,10.10
2008,04,02,17,11,10.20
2008,04,02,17,12,10.20
2008,04,02,17,13,10.10
2008,04,02,17,14,10.10
2008,04,02,17,15,10.10
2008,04,02,17,16,10.10
2008,04,02,17,17,10.10
2008,04,02,17,18,10.10
2008,04,02,17,19,10.10
2008,04,02,17,20,10.10
2008,04,02,17,21,10.20
2008,04,02,17,22,10.20
2008,04,02,17,23,10.20
2008,04,02,17,24,10.10
2008,04,02,17,25,9.90
2008,04,02,17,26,9.90
2008,04,02,17,27,9.90
2008,04,02,17,28,9.90
2008,04,02,17,29,9.80
2008,04,02,17,30,9.80
2008,04,02,17,31,9.80
2008,04,02,17,32,9.80
2008,04,02,17,33,9.80
2008,04,02,17,34,9.80
2008,04,02,17,35,9.80
2008,04,02,17,36,9.90
2008,04,02,17,37,9.90
2008,04,02,17,38,9.80
2008,04,02,17,39,9.90
2008,04,02,17,40,9.90
2008,04,02,17,41,9.90
2008,04,02,17,42,9.90
2008,04,02,17,43,9.90
2008,04,02,17,44,9.90
2008,04,02,17,45,9.80
2008,04,02,17,46,9.80
2008,04,02,17,47,9.80
2008,04,02,17,48,9.80
2008,04,02,17,49,9.90
2008,04,02,17,50,9.90
2008,04,02,17,51,10.10
2008,04,02,17,52,10.20
2008,04,02,17,53,10.20
2008,04,02,17,54,10.30
2008,04,02,17,55,10.30
2008,04,02,17,56,10.30
2008,04,02,17,57,10.30
2008,04,02,17,58,10.30
2008,04,02,17,59,10.30
2008,04,02,18,00,10.20
2008,04,02,18,01,10.20
2008,04,02,18,02,10.10
2008,04,02,18,03,10.10
2008,04,02,18,04,10.00